Orbital Elements at Epoch 2459000.5 (2020-May-31.0) TDB
Reference: JPL 4 (heliocentric ecliptic J2000)
Element | Value | Uncertainty (1-sigma) | Units |
e | .1379338441940728 | 6.7216e-08 | |
a | 3.153953878447057 | 6.8916e-08 | au |
q | 2.718916895582049 | 2.4316e-07 | au |
i | 10.10934299242013 | 6.4711e-06 | deg |
node | 84.40305936724236 | 5.6037e-05 | deg |
peri | 1.209297874445137 | 6.5468e-05 | deg |
M | 250.2155408100372 | 3.5464e-05 | deg |
tp | 2459624.406916568841 (2022-Feb-13.90691657) | 0.00020852 | TDB |
period | 2045.886017219801 5.60 | 6.7056e-05 1.836e-07 | d yr |
n | .1759628820813839 | 5.7674e-09 | deg/d |
Q | 3.588990861312065 | 7.8422e-08 | au |
|
| | Orbit Determination Parameters
Additional Information
|